SUOMI-100 (43804 NORAD) Tracking and Keplerian Element Data

This shows tracking and keplerian element data for the satellite.

Feedback or suggestion? Click here.




ElementValue
Catalog43804
NameSUOMI-100
Epoch Orbit10766
Epoch Day328.157059
Epoch Year2020
RAAN36.9419
Inclination97.6886
Eccentricity0.0015777
Argument of Perigee26.611
Mean Anonmoly333.5918
Mean Motion14.95611537
Decay Rate8.34E-06
L11 43804U 18099AY 20328.15705900 .00000834 00000-0 80121-4 0 9999
L22 43804 97.6886 36.9419 0015777 26.6110 333.5918 14.95611537107664

Live tracking and technical data element details for SUOMI-100 (NORAD 43804). SUOMI-100 can be tracked NOW for your location showing map with azimuth and elevation plus other details from your city location.

Track the satellite on the map from your city or location and see movement details for azimuth, elevation, latitude, longitude, range, height, and movement on the map or in text.







IsCatalogInMostPopularTable: catalog: 43804, numindb: 770
Update: records affected: 1



GetName: 43804 SUOMI-100

Hit Count: updated at: Mon, 23 Nov 2020 21:29:51 GMT